Weather History for Fort Campbell, KY

Change the Weather History Date:

Monday, November 19, 2012

  Actual Average Record
Temperature  
Mean Temperature 48 °F -  
Max Temperature 65 °F 56 °F 71 °F (1999)
Min Temperature 31 °F 37 °F 24 °F (2008)
Degree Days  
Heating Degree Days 17    
Moisture  
Dew Point 34 °F    
Average Humidity 57    
Maximum Humidity 96    
Minimum Humidity 27    
Precipitation  
Precipitation 0.00 in - - ()
Sea Level Pressure  
Sea Level Pressure 30.27 in    
Wind  
Wind Speed 1 mph (NE)    
Max Wind Speed 5 mph    
Max Gust Speed -    
Visibility 9 miles    
Events      
Averages and records for this station are not official NWS values.
T = Trace of Precipitation, MM = Missing Value Source: NWS Daily Summary

Daily Weather History Graph

Daily Weather History Graph

Search for Another Location

Airport:

Trip Planner

Search our weather history database for the weather conditions in past years. The results will help you decide how hot, cold, wet, or windy it might be!

Date:

Astronomy

Nov. 19, 2012 Rise Set
Actual Time 6:32 AM CST 4:38 PM CST
Civil Twilight 6:04 AM CST 5:06 PM CST
Nautical Twilight 5:33 AM CST 5:37 PM CST
Astronomical Twilight 5:02 AM CST 6:08 PM CST
Moon 11:38 AM CST (11/19) 11:00 PM CST (11/19)
Length of Visible Light 11h 01m
Length of Day
10h 05m
Waxing Crescent, 41% of the Moon is Illuminated
Nov 19
Waxing Crescent
Nov 20
First Quarter
Nov 28
Full
Dec 6
Last Quarter
Dec 13
New

Hourly Weather History & Observations

Time (CST) Temp. Windchill Dew Point Humidity Pressure Visibility Wind Dir Wind Speed Gust Speed Precip Events Conditions
12:55 AM 37.8 °F - 33.6 °F 85% 30.34 in 10.0 mi Calm Calm - N/A   Clear
1:55 AM 37.2 °F - 32.2 °F 82% 30.34 in 10.0 mi Calm Calm - N/A   Clear
2:55 AM 36.7 °F - 32.4 °F 84% 30.33 in 10.0 mi Calm Calm - N/A   Clear
3:55 AM 31.6 °F 28.3 °F 30.6 °F 96% 30.32 in 10.0 mi ENE 3.5 mph - N/A   Clear
4:55 AM 34.5 °F - 33.4 °F 96% 30.33 in 10.0 mi Calm Calm - N/A   Clear
5:55 AM 34.9 °F - 33.1 °F 93% 30.34 in 10.0 mi Calm Calm - N/A   Clear
6:55 AM 35.1 °F - 33.6 °F 94% 30.34 in 10.0 mi Calm Calm - N/A   Clear
7:55 AM 39.7 °F - 36.3 °F 88% 30.34 in 10.0 mi Calm Calm - N/A   Clear
8:55 AM 45.9 °F - 38.5 °F 75% 30.35 in 10.0 mi Calm Calm - N/A   Clear
9:55 AM 54.3 °F - 36.9 °F 52% 30.35 in 10.0 mi SE 3.5 mph - N/A   Clear
10:55 AM 59.0 °F - 36.9 °F 44% 30.34 in 10.0 mi Calm Calm - N/A   Clear
11:55 AM 63.0 °F - 34.9 °F 35% 30.29 in 10.0 mi Calm Calm - N/A   Mostly Cloudy
12:55 PM 64.6 °F - 33.3 °F 31% 30.27 in 10.0 mi Variable 3.5 mph - N/A   Scattered Clouds
1:55 PM 65.7 °F - 30.4 °F 27% 30.24 in 6.0 mi Calm Calm - N/A   Haze
2:20 PM 64.4 °F - 30.2 °F 28% 30.23 in 0.8 mi NE 4.6 mph - N/A   Haze
2:22 PM 64.4 °F - 32.0 °F 30% 30.23 in 0.5 mi NNE 3.5 mph - N/A   Haze
2:24 PM 64.4 °F - 32.0 °F 30% 30.23 in 10.0 mi NE 3.5 mph - N/A   Scattered Clouds
3:05 PM 64.4 °F - 32.0 °F 30% 30.23 in 7.0 mi Calm Calm - N/A   Scattered Clouds
3:55 PM 61.9 °F - 35.1 °F 37% 30.22 in 10.0 mi NNE 4.6 mph - N/A   Mostly Cloudy
4:55 PM 58.8 °F - 36.5 °F 43% 30.21 in 10.0 mi NE 3.5 mph - N/A   Overcast
5:55 PM 58.6 °F - 32.9 °F 38% 30.22 in 10.0 mi Calm Calm - N/A   Overcast
6:55 PM 54.0 °F - 39.0 °F 57% 30.23 in 10.0 mi Calm Calm - N/A   Overcast
7:55 PM 55.6 °F - 35.4 °F 47% 30.22 in 10.0 mi Calm Calm - N/A   Overcast
8:55 PM 55.0 °F - 37.6 °F 52% 30.21 in 10.0 mi Calm Calm - N/A   Overcast
9:55 PM 54.0 °F - 36.9 °F 52% 30.19 in 10.0 mi Calm Calm - N/A   Overcast
10:55 PM 53.6 °F - 36.7 °F 53% 30.19 in 5.0 mi Calm Calm - N/A   Haze
11:55 PM 51.4 °F - 39.0 °F 63% 30.17 in 7.0 mi Calm Calm - N/A   Overcast